Location: Dąbrowa Miętka
(51.3714°N, 18.6370°E)
Time: 12:10:29
(UTC+01:00)

ISS - Pass Details

Date: 01 February 2019
Orbit: 403 x 411 km, 51.6° (Epoch: 23 February)

Event Time Altitude Azimuth Distance (km) Brightness Sun altitude
Rises 18:54:19 0° 280° (W) 2,339 1.5 -21.8°
Reaches altitude 10° 18:56:24 10° 279° (W) 1,479 0.1 -22.1°
Enters shadow 18:59:01 52° 270° (W) 517 -3.0 -22.5°
